This is the latest recevied weather packets stored in our database for station/object M3YFM-13. If no packets are shown the sender has not sent any weather packets the latest 10 day(s).
| Time | Temp. | Humidity | Pressure | Rain* | Wind** | Luminosity | Snow |
|---|---|---|---|---|---|---|---|
| 1777041325 | 19.44° C | 17% | - | 0 mm | - | - | - |
| 1777041025 | 18.89° C | 17% | - | 0 mm | - | - | - |
| 1777040725 | 18.89° C | 17% | - | 0 mm | - | - | - |
| 1777040424 | 18.89° C | 17% | - | 0 mm | - | - | - |
| 1777040124 | 18.89° C | 17% | - | 0 mm | - | - | - |
| 1777039824 | 18.89° C | 17% | - | 0 mm | - | - | - |
| 1777039523 | 18.89° C | 17% | - | 0 mm | - | - | - |
| 1777039223 | 18.89° C | 16% | - | 0 mm | - | - | - |
| 1777038923 | 19.44° C | 17% | - | 0 mm | - | - | - |
| 1777038623 | 18.89° C | 16% | - | 0 mm | - | - | - |
| 1777038322 | 18.33° C | 17% | - | 0 mm | - | - | - |
| 1777038022 | 18.33° C | 17% | - | 0 mm | - | - | - |
| 1777037421 | 19.44° C | 18% | - | 0 mm | - | - | - |
| 1777037120 | 18.89° C | 18% | - | 0 mm | - | - | - |
| 1777036820 | 18.89° C | 18% | - | 0 mm | - | - | - |
| 1777036520 | 18.33° C | 21% | - | 0 mm | - | - | - |
| 1777036220 | 18.33° C | 20% | - | 0 mm | - | - | - |
| 1777035919 | 17.78° C | 25% | - | 0 mm | - | - | - |
| 1777035619 | 17.78° C | 24% | - | 0 mm | - | - | - |
| 1777035319 | 17.78° C | 25% | - | 0 mm | - | - | - |
| 1777035019 | 17.22° C | 28% | - | 0 mm | - | - | - |
| 1777034718 | 17.78° C | 28% | - | 0 mm | - | - | - |
| 1777034418 | 17.22° C | 29% | - | 0 mm | - | - | - |
| 1777034118 | 17.22° C | 31% | - | 0 mm | - | - | - |
| 1777033817 | 17.78° C | 31% | - | 0 mm | - | - | - |
* Rain since midnight (hover to see other rain measurements)
** Current wind speed in m/s (hover to see current wind gust speed)